Time,TemperatureF,DewpointF,PressureIn,WindDirection,WindDirectionDegrees,WindSpeedMPH,WindSpeedGustMPH,Humidity,HourlyPrecipIn,Conditions,Clouds,dailyrainin,SoftwareType,DateUTC
2013-11-06 00:13:00,42.0,38.0,30.44,SSE,161,5.0,9.0,84,0.00,,,0.00,,2013-11-06 05:13:00,
2013-11-06 00:23:00,42.0,38.0,30.43,SSE,168,4.0,7.0,84,0.00,,,0.00,,2013-11-06 05:23:00,
2013-11-06 00:44:00,41.0,37.0,30.43,SSE,167,3.0,7.0,86,0.00,,,0.00,,2013-11-06 05:44:00,
2013-11-06 00:53:00,42.0,38.0,30.43,SSW,194,3.0,6.0,86,0.00,,,0.00,,2013-11-06 05:53:00,
2013-11-06 01:13:00,41.0,37.0,30.42,South,169,4.0,6.0,86,0.00,,,0.00,,2013-11-06 06:13:00,
2013-11-06 01:22:00,42.0,38.0,30.43,South,173,2.0,5.0,86,0.00,,,0.00,,2013-11-06 06:22:00,
2013-11-06 01:42:00,42.0,38.0,30.42,SSW,197,4.0,6.0,86,0.00,,,0.00,,2013-11-06 06:42:00,
2013-11-06 01:52:00,42.0,38.0,30.42,South,185,4.0,7.0,86,0.00,,,0.00,,2013-11-06 06:52:00,
2013-11-06 02:12:00,42.0,38.0,30.41,SSW,197,5.0,9.0,87,0.00,,,0.00,,2013-11-06 07:12:00,
2013-11-06 02:22:00,43.0,39.0,30.40,South,184,4.0,11.0,87,0.00,,,0.00,,2013-11-06 07:22:00,
2013-11-06 02:42:00,43.0,39.0,30.40,South,172,6.0,8.0,86,0.00,,,0.00,,2013-11-06 07:42:00,
2013-11-06 02:52:00,43.0,39.0,30.39,SSE,168,5.0,9.0,87,0.00,,,0.00,,2013-11-06 07:52:00,
2013-11-06 03:12:00,43.0,39.0,30.39,South,183,5.0,9.0,87,0.00,,,0.00,,2013-11-06 08:12:00,
2013-11-06 03:22:00,43.0,39.0,30.38,South,179,5.0,10.0,87,0.00,,,0.00,,2013-11-06 08:22:00,
2013-11-06 03:42:00,43.0,39.0,30.37,South,187,6.0,9.0,87,0.00,,,0.00,,2013-11-06 08:42:00,
2013-11-06 03:52:00,43.0,39.0,30.37,SSE,160,5.0,10.0,87,0.00,,,0.00,,2013-11-06 08:52:00,
2013-11-06 04:12:00,43.0,39.0,30.36,South,169,3.0,9.0,87,0.00,,,0.00,,2013-11-06 09:12:00,
2013-11-06 04:22:00,43.0,39.0,30.36,SSW,208,5.0,11.0,87,0.00,,,0.00,,2013-11-06 09:22:00,
2013-11-06 04:43:00,43.0,40.0,30.36,SSW,205,4.0,10.0,88,0.00,,,0.00,,2013-11-06 09:43:00,
2013-11-06 04:53:00,43.0,40.0,30.36,South,172,5.0,9.0,89,0.00,,,0.00,,2013-11-06 09:53:00,
2013-11-06 05:12:00,43.0,40.0,30.35,South,171,4.0,8.0,89,0.00,,,0.00,,2013-11-06 10:12:00,
2013-11-06 05:23:00,43.0,40.0,30.35,SSE,165,4.0,10.0,90,0.00,,,0.00,,2013-11-06 10:23:00,
2013-11-06 05:42:00,43.0,40.0,30.35,SSE,166,5.0,9.0,89,0.00,,,0.00,,2013-11-06 10:42:00,
2013-11-06 05:53:00,43.0,40.0,30.35,SSE,152,3.0,8.0,90,0.00,,,0.00,,2013-11-06 10:53:00,
2013-11-06 06:12:00,44.0,41.0,30.34,South,183,4.0,12.0,89,0.00,,,0.00,,2013-11-06 11:12:00,
2013-11-06 06:22:00,44.0,41.0,30.34,SSW,198,5.0,10.0,89,0.00,,,0.00,,2013-11-06 11:22:00,
2013-11-06 06:42:00,44.0,41.0,30.34,South,186,6.0,9.0,90,0.00,,,0.00,,2013-11-06 11:42:00,
2013-11-06 06:52:00,44.0,41.0,30.33,South,176,4.0,10.0,90,0.00,,,0.00,,2013-11-06 11:52:00,
2013-11-06 07:12:00,44.0,41.0,30.33,SW,234,4.0,8.0,90,0.00,,,0.00,,2013-11-06 12:12:00,
2013-11-06 07:22:00,44.0,41.0,30.32,South,170,3.0,11.0,90,0.00,,,0.00,,2013-11-06 12:22:00,
2013-11-06 07:42:00,44.0,41.0,30.31,SE,144,6.0,12.0,90,0.00,,,0.00,,2013-11-06 12:42:00,
2013-11-06 07:52:00,44.0,41.0,30.31,South,172,6.0,13.0,90,0.00,,,0.00,,2013-11-06 12:52:00,
2013-11-06 08:12:00,45.0,42.0,30.30,South,170,6.0,13.0,90,0.00,,,0.00,,2013-11-06 13:12:00,
2013-11-06 08:22:00,45.0,42.0,30.31,South,176,5.0,13.0,90,0.00,,,0.00,,2013-11-06 13:22:00,
2013-11-06 08:42:00,45.0,42.0,30.31,SSE,160,4.0,13.0,89,0.00,,,0.00,,2013-11-06 13:42:00,
2013-11-06 08:52:00,46.0,43.0,30.30,SSE,166,4.0,13.0,89,0.00,,,0.00,,2013-11-06 13:52:00,
2013-11-06 09:12:00,46.0,43.0,30.29,SSE,155,6.0,16.0,89,0.00,,,0.00,,2013-11-06 14:12:00,
2013-11-06 09:22:00,46.0,43.0,30.29,SSE,162,6.0,14.0,89,0.00,,,0.00,,2013-11-06 14:22:00,
2013-11-06 09:42:00,47.0,44.0,30.28,South,171,7.0,12.0,89,0.00,,,0.00,,2013-11-06 14:42:00,
2013-11-06 09:52:00,47.0,44.0,30.29,ESE,123,4.0,12.0,89,0.00,,,0.00,,2013-11-06 14:52:00,
2013-11-06 10:11:00,47.0,44.0,30.27,SSE,166,4.0,12.0,89,0.00,,,0.00,,2013-11-06 15:11:00,
2013-11-06 10:22:00,47.0,44.0,30.27,South,188,8.0,15.0,89,0.00,,,0.00,,2013-11-06 15:22:00,
2013-11-06 10:43:00,48.0,45.0,30.26,SSE,162,3.0,13.0,88,0.00,,,0.00,,2013-11-06 15:43:00,
2013-11-06 10:53:00,49.0,45.0,30.26,SSE,168,5.0,10.0,87,0.00,,,0.00,,2013-11-06 15:53:00,
2013-11-06 11:13:00,49.0,45.0,30.25,SSE,162,6.0,12.0,86,0.00,,,0.00,,2013-11-06 16:13:00,
2013-11-06 11:23:00,49.0,45.0,30.26,SSE,162,5.0,15.0,86,0.00,,,0.00,,2013-11-06 16:23:00,
2013-11-06 11:42:00,50.0,46.0,30.24,South,174,6.0,15.0,85,0.00,,,0.00,,2013-11-06 16:42:00,
2013-11-06 11:53:00,51.0,46.0,30.23,SE,145,6.0,13.0,84,0.00,,,0.00,,2013-11-06 16:53:00,
2013-11-06 12:13:00,51.0,46.0,30.22,SE,142,10.0,15.0,83,0.00,,,0.00,,2013-11-06 17:13:00,
2013-11-06 12:23:00,52.0,47.0,30.22,South,174,9.0,17.0,82,0.00,,,0.00,,2013-11-06 17:23:00,
2013-11-06 12:43:00,53.0,47.0,30.20,South,169,6.0,16.0,80,0.00,,,0.00,,2013-11-06 17:43:00,
2013-11-06 12:52:00,54.0,47.0,30.20,SSE,151,6.0,15.0,77,0.00,,,0.00,,2013-11-06 17:52:00,
2013-11-06 13:12:00,55.0,48.0,30.20,South,169,6.0,16.0,76,0.00,,,0.00,,2013-11-06 18:12:00,
2013-11-06 13:22:00,55.0,48.0,30.19,SSE,165,7.0,17.0,77,0.00,,,0.00,,2013-11-06 18:22:00,
2013-11-06 13:42:00,55.0,47.0,30.18,South,176,5.0,14.0,74,0.00,,,0.00,,2013-11-06 18:42:00,
2013-11-06 13:52:00,56.0,47.0,30.18,SSE,152,7.0,13.0,73,0.00,,,0.00,,2013-11-06 18:52:00,
2013-11-06 14:22:00,57.0,48.0,30.15,SW,229,6.0,11.0,71,0.00,,,0.00,,2013-11-06 19:22:00,
2013-11-06 14:42:00,58.0,48.0,30.14,South,179,8.0,18.0,70,0.00,,,0.00,,2013-11-06 19:42:00,
2013-11-06 14:52:00,58.0,48.0,30.12,SSE,154,7.0,18.0,69,0.00,,,0.00,,2013-11-06 19:52:00,
2013-11-06 15:12:00,57.0,47.0,30.11,SE,140,11.0,18.0,70,0.00,,,0.00,,2013-11-06 20:12:00,
2013-11-06 15:22:00,57.0,48.0,30.12,South,169,9.0,16.0,71,0.00,,,0.00,,2013-11-06 20:22:00,
2013-11-06 15:42:00,57.0,48.0,30.11,South,189,8.0,16.0,72,0.00,,,0.00,,2013-11-06 20:42:00,
2013-11-06 15:52:00,57.0,48.0,30.10,South,172,9.0,16.0,71,0.00,,,0.00,,2013-11-06 20:52:00,
2013-11-06 16:12:00,57.0,47.0,30.09,SSE,161,8.0,15.0,70,0.00,,,0.00,,2013-11-06 21:12:00,
2013-11-06 16:22:00,57.0,48.0,30.09,South,169,9.0,18.0,71,0.00,,,0.00,,2013-11-06 21:22:00,
2013-11-06 16:44:00,57.0,48.0,30.07,South,174,10.0,20.0,71,0.00,,,0.00,,2013-11-06 21:44:00,
2013-11-06 16:54:00,56.0,47.0,30.07,South,179,11.0,17.0,71,0.00,,,0.00,,2013-11-06 21:54:00,
2013-11-06 17:14:00,56.0,47.0,30.06,SE,131,11.0,18.0,72,0.00,,,0.00,,2013-11-06 22:14:00,
2013-11-06 17:24:00,56.0,47.0,30.04,South,174,11.0,19.0,73,0.00,,,0.00,,2013-11-06 22:24:00,
2013-11-06 17:43:00,55.0,47.0,30.04,South,174,11.0,19.0,73,0.00,,,0.00,,2013-11-06 22:43:00,
2013-11-06 17:53:00,55.0,47.0,30.03,SE,139,13.0,19.0,74,0.00,,,0.00,,2013-11-06 22:53:00,
2013-11-06 18:13:00,55.0,47.0,30.03,SSE,150,13.0,20.0,74,0.00,,,0.00,,2013-11-06 23:13:00,
2013-11-06 18:22:00,55.0,47.0,30.03,SSE,162,11.0,19.0,74,0.00,,,0.00,,2013-11-06 23:22:00,
2013-11-06 18:42:00,55.0,47.0,30.03,SSW,200,9.0,18.0,75,0.00,,,0.00,,2013-11-06 23:42:00,
2013-11-06 18:53:00,54.0,46.0,30.03,SSE,164,7.0,14.0,75,0.00,,,0.00,,2013-11-06 23:53:00,
2013-11-06 19:12:00,54.0,47.0,30.03,SSE,162,6.0,11.0,76,0.00,,,0.00,,2013-11-07 00:12:00,
2013-11-06 19:22:00,54.0,47.0,30.02,South,179,7.0,14.0,76,0.00,,,0.00,,2013-11-07 00:22:00,
2013-11-06 19:42:00,54.0,47.0,30.02,SSE,163,8.0,13.0,76,0.00,,,0.00,,2013-11-07 00:42:00,
2013-11-06 19:52:00,54.0,47.0,30.01,SSE,167,7.0,15.0,77,0.00,,,0.00,,2013-11-07 00:52:00,
2013-11-06 20:22:00,54.0,47.0,29.99,SSE,165,7.0,18.0,78,0.00,,,0.00,,2013-11-07 01:22:00,
2013-11-06 20:42:00,55.0,48.0,29.99,SE,139,8.0,15.0,77,0.00,,,0.00,,2013-11-07 01:42:00,
2013-11-06 20:52:00,55.0,48.0,29.99,SSE,162,7.0,15.0,77,0.00,,,0.00,,2013-11-07 01:52:00,
2013-11-06 21:12:00,55.0,48.0,29.99,South,175,6.0,16.0,77,0.00,,,0.00,,2013-11-07 02:12:00,
2013-11-06 21:22:00,55.0,48.0,29.98,SSE,168,8.0,14.0,78,0.00,,,0.00,,2013-11-07 02:22:00,
2013-11-06 22:12:00,55.0,48.0,29.96,SSE,168,5.0,14.0,78,0.00,,,0.00,,2013-11-07 03:12:00,
2013-11-06 22:22:00,55.0,48.0,29.95,SSE,159,5.0,16.0,77,0.00,,,0.00,,2013-11-07 03:22:00,
2013-11-06 22:44:00,55.0,48.0,29.94,SSW,198,7.0,14.0,77,0.00,,,0.00,,2013-11-07 03:44:00,
2013-11-06 22:55:00,55.0,48.0,29.94,South,179,5.0,13.0,77,0.00,,,0.00,,2013-11-07 03:55:00,
2013-11-06 23:13:00,55.0,48.0,29.93,South,175,5.0,14.0,76,0.00,,,0.00,,2013-11-07 04:13:00,
2013-11-06 23:24:00,56.0,49.0,29.93,SSW,195,4.0,13.0,76,0.00,,,0.00,,2013-11-07 04:24:00,
2013-11-06 23:43:00,56.0,48.0,29.91,South,177,5.0,15.0,75,0.00,,,0.00,,2013-11-07 04:43:00,
2013-11-06 23:53:00,56.0,49.0,29.91,South,173,6.0,12.0,76,0.00,,,0.00,,2013-11-07 04:53:00,